Station Historical Data
Daily Summary for May 6, 2017 Units:  Metric    English   Both
« Previous Day
Next Day »
Daily Weekly Monthly Yearly Custom
  High: Low: Average:
Temperature: 8.1 °C 4.6 °C 6.4 °C
Dew Point: 7.3 °C 3.6 °C 5.4 °C
Humidity: 95% 90% 93%
Wind Speed: 17.7km/h 0km/h 6.6km/h
Wind Gust: 22.5km/h - -
Wind- - WNW
Pressure: 999.5 hPa 993.5 hPa -
Precipitation: 0 mm    
Historical Graphs
 
 
Tabular Data for May 6, 2017
Time Temperature Dew Point Pressure Wind Wind Speed Wind Gust Humidity Rainfall Rate (Hourly)
00:04 8.1 °C 7.3 °C 996.2 hPa NW 3.2 km/h 11.3 km/h 95% 1.02 mm
00:09 8.1 °C 7.3 °C 996.2 hPa NNW 3.2 km/h 8 km/h 95% 1.02 mm
00:14 8.1 °C 7.3 °C 996.2 hPa NNW 3.2 km/h 6.4 km/h 95% 1.27 mm
00:19 8.1 °C 7.3 °C 995.8 hPa NNW 3.2 km/h 11.3 km/h 95% 1.27 mm
00:24 8.1 °C 7.3 °C 995.8 hPa NNW 3.2 km/h 11.3 km/h 95% 1.27 mm
00:29 8.1 °C 7.3 °C 995.5 hPa NNW 3.2 km/h 6.4 km/h 95% 1.27 mm
00:34 8.1 °C 7.3 °C 995.1 hPa NNW 11.3 km/h 16.1 km/h 95% 1.27 mm
00:39 8.1 °C 7.3 °C 995.1 hPa North 6.4 km/h 19.3 km/h 95% 1.27 mm
00:44 8 °C 7.2 °C 995.1 hPa NNE 3.2 km/h 14.5 km/h 95% 1.52 mm
00:49 7.9 °C 7.2 °C 995.1 hPa NE 6.4 km/h 11.3 km/h 95% 1.78 mm
00:54 7.9 °C 7.2 °C 994.8 hPa NE 4.8 km/h 11.3 km/h 95% 1.78 mm
00:59 7.9 °C 7.2 °C 994.8 hPa NNE 3.2 km/h 6.4 km/h 95% 2.03 mm
01:04 7.9 °C 7.2 °C 994.8 hPa NNE 4.8 km/h 9.7 km/h 95% 2.03 mm
01:09 7.9 °C 7.1 °C 994.8 hPa NNE 6.4 km/h 12.9 km/h 95% 2.29 mm
01:14 7.9 °C 7.1 °C 994.1 hPa NNE 6.4 km/h 12.9 km/h 95% 2.03 mm
01:19 7.8 °C 7.1 °C 994.5 hPa North 6.4 km/h 17.7 km/h 95% 2.29 mm
01:24 7.8 °C 7.1 °C 994.5 hPa NW 4.8 km/h 11.3 km/h 95% 2.03 mm
01:29 7.8 °C 7 °C 994.1 hPa NNE 3.2 km/h 11.3 km/h 95% 1.78 mm
01:34 7.8 °C 7 °C 994.1 hPa North 4.8 km/h 16.1 km/h 95% 1.52 mm
01:39 7.7 °C 6.9 °C 994.1 hPa North 4.8 km/h 16.1 km/h 95% 1.27 mm
01:44 7.8 °C 7 °C 994.5 hPa NNW 3.2 km/h 11.3 km/h 95% 1.02 mm
01:49 7.8 °C 7 °C 995.1 hPa West 4.8 km/h 11.3 km/h 95% 0.76 mm
01:54 7.8 °C 7 °C 995.1 hPa West 4.8 km/h 11.3 km/h 95% 0.76 mm
01:59 7.8 °C 7 °C 995.1 hPa West 6.4 km/h 12.9 km/h 95% 0.51 mm
02:04 7.8 °C 7 °C 994.8 hPa WNW 4.8 km/h 12.9 km/h 95% 0.51 mm
02:09 7.7 °C 6.9 °C 994.8 hPa West 8 km/h 14.5 km/h 95% 0.25 mm
02:14 7.7 °C 6.9 °C 994.8 hPa West 3.2 km/h 9.7 km/h 95% 0.25 mm
02:19 7.6 °C 6.9 °C 995.1 hPa North 3.2 km/h 11.3 km/h 95% 0 mm
02:24 7.6 °C 6.9 °C 995.5 hPa WNW 4.8 km/h 8 km/h 95% 0.25 mm
02:29 7.6 °C 6.9 °C 995.1 hPa WNW 4.8 km/h 9.7 km/h 95% 0.25 mm
02:34 7.6 °C 6.9 °C 995.1 hPa NW 4.8 km/h 9.7 km/h 95% 0.25 mm
02:39 7.6 °C 6.9 °C 995.1 hPa NW 3.2 km/h 9.7 km/h 95% 0.25 mm
02:44 7.6 °C 6.8 °C 995.1 hPa WNW 3.2 km/h 11.3 km/h 95% 0.25 mm
02:49 7.6 °C 6.8 °C 994.8 hPa NNW 3.2 km/h 11.3 km/h 95% 0.25 mm
02:54 7.6 °C 6.8 °C 994.8 hPa NW 4.8 km/h 12.9 km/h 95% 0.25 mm
02:59 7.5 °C 6.8 °C 994.8 hPa NW 4.8 km/h 11.3 km/h 95% 0.25 mm
03:04 7.4 °C 6.7 °C 994.5 hPa NNE 1.6 km/h 9.7 km/h 95% 0.25 mm
03:09 7.3 °C 6.6 °C 994.5 hPa NNW 3.2 km/h 14.5 km/h 95% 0.25 mm
03:14 7.3 °C 6.6 °C 994.1 hPa North 4.8 km/h 11.3 km/h 95% 0.25 mm
03:19 7.3 °C 6.6 °C 993.8 hPa NNW 3.2 km/h 14.5 km/h 95% 0.25 mm
03:24 7.2 °C 6.5 °C 993.5 hPa North 3.2 km/h 12.9 km/h 95% 0 mm
03:29 7.2 °C 6.4 °C 993.5 hPa North 6.4 km/h 12.9 km/h 95% 0 mm
03:34 7.1 °C 6.4 °C 993.5 hPa North 6.4 km/h 14.5 km/h 95% 0 mm
03:39 7.1 °C 6.3 °C 993.5 hPa NNW 6.4 km/h 16.1 km/h 95% 0 mm
03:44 7.1 °C 6.3 °C 993.5 hPa North 4.8 km/h 16.1 km/h 95% 0 mm
03:49 7 °C 6.3 °C 993.5 hPa NNW 3.2 km/h 9.7 km/h 95% 0 mm
03:54 7 °C 6.3 °C 993.8 hPa NW 3.2 km/h 8 km/h 95% 0 mm
03:59 6.9 °C 6.2 °C 993.8 hPa NW 3.2 km/h 8 km/h 95% 0 mm
04:04 6.9 °C 6.2 °C 993.5 hPa NW 3.2 km/h 11.3 km/h 95% 0 mm
04:09 6.9 °C 6.2 °C 993.8 hPa NNW 3.2 km/h 11.3 km/h 95% 0 mm
04:14 6.9 °C 6.2 °C 994.5 hPa WNW 1.6 km/h 9.7 km/h 95% 0 mm
04:19 6.9 °C 6.2 °C 994.5 hPa WNW 4.8 km/h 6.4 km/h 95% 0 mm
04:24 6.9 °C 6.2 °C 994.5 hPa Calm   11.3 km/h 95% 0 mm
04:29 6.9 °C 6.2 °C 994.5 hPa West 9.7 km/h 11.3 km/h 95% 0 mm
04:34 6.9 °C 6.2 °C 994.8 hPa West 6.4 km/h 11.3 km/h 95% 0 mm
04:39 6.9 °C 6.2 °C 994.8 hPa West 4.8 km/h 11.3 km/h 95% 0 mm
04:44 6.9 °C 6.2 °C 994.8 hPa WNW 1.6 km/h 9.7 km/h 95% 0 mm
04:49 6.9 °C 6.2 °C 994.8 hPa NW 3.2 km/h 9.7 km/h 95% 0.25 mm
04:54 6.9 °C 6.2 °C 994.8 hPa NW 9.7 km/h 9.7 km/h 95% 0.25 mm
04:59 6.9 °C 6.2 °C 994.5 hPa WNW 6.4 km/h 8 km/h 95% 0.25 mm
05:04 6.9 °C 6.2 °C 994.5 hPa WNW 4.8 km/h 9.7 km/h 95% 0.51 mm
05:09 6.9 °C 6.2 °C 994.8 hPa WNW 4.8 km/h 9.7 km/h 95% 0.51 mm
05:14 6.9 °C 6.2 °C 994.8 hPa West 3.2 km/h 9.7 km/h 95% 0.51 mm
05:19 6.9 °C 6.2 °C 994.5 hPa West 6.4 km/h 6.4 km/h 95% 0.51 mm
05:24 6.8 °C 6.1 °C 994.5 hPa West 4.8 km/h 9.7 km/h 95% 0.51 mm
05:29 6.8 °C 6.1 °C 994.5 hPa WNW 8 km/h 11.3 km/h 95% 0.76 mm
05:34 6.7 °C 6 °C 994.1 hPa NNW 3.2 km/h 14.5 km/h 95% 0.76 mm
05:39 6.6 °C 5.7 °C 994.1 hPa Calm   14.5 km/h 94% 0.76 mm
05:44 6.6 °C 5.7 °C 994.1 hPa West 9.7 km/h 16.1 km/h 94% 0.76 mm
05:49 6.3 °C 5.6 °C 994.1 hPa West 8 km/h 11.3 km/h 95% 0.51 mm
05:54 6.2 °C 5.3 °C 994.1 hPa NW 3.2 km/h 12.9 km/h 94% 0.51 mm
05:59 6.1 °C 5.2 °C 994.5 hPa NW 3.2 km/h 14.5 km/h 94% 0.51 mm
06:04 6.1 °C 5.3 °C 994.5 hPa NW 4.8 km/h 16.1 km/h 95% 0.25 mm
06:09 6 °C 5.3 °C 994.8 hPa NW 6.4 km/h 16.1 km/h 95% 0.25 mm
06:14 6 °C 5.1 °C 994.8 hPa NW 4.8 km/h 16.1 km/h 94% 0.25 mm
06:19 6 °C 5.1 °C 994.8 hPa WNW 4.8 km/h 11.3 km/h 94% 0.25 mm
06:24 6 °C 5.3 °C 994.5 hPa WNW 4.8 km/h 12.9 km/h 95% 0.25 mm
06:29 6 °C 5.1 °C 994.8 hPa NW 4.8 km/h 12.9 km/h 94% 0 mm
06:34 5.9 °C 5.1 °C 994.8 hPa WNW 4.8 km/h 11.3 km/h 94% 0 mm
06:39 5.9 °C 5 °C 994.5 hPa WNW 1.6 km/h 8 km/h 94% 0 mm
06:44 5.9 °C 5.1 °C 994.5 hPa West 11.3 km/h 12.9 km/h 94% 0 mm
06:49 5.8 °C 4.9 °C 994.5 hPa WNW 8 km/h 16.1 km/h 94% 0 mm
06:54 5.8 °C 5.1 °C 994.8 hPa WNW 6.4 km/h 16.1 km/h 95% 0 mm
06:59 5.8 °C 5.1 °C 994.8 hPa NW 6.4 km/h 16.1 km/h 95% 0 mm
07:04 5.9 °C 5.2 °C 994.8 hPa WNW 6.4 km/h 16.1 km/h 95% 0 mm
07:09 5.8 °C 5.1 °C 995.1 hPa NW 6.4 km/h 14.5 km/h 95% 0 mm
07:14 5.8 °C 5.1 °C 995.1 hPa NW 4.8 km/h 14.5 km/h 95% 0 mm
07:19 5.8 °C 5.1 °C 995.1 hPa WNW 4.8 km/h 16.1 km/h 95% 0 mm
07:24 5.8 °C 5.1 °C 995.1 hPa NW 6.4 km/h 12.9 km/h 95% 0 mm
07:29 5.8 °C 5.1 °C 995.1 hPa NW 4.8 km/h 9.7 km/h 95% 0 mm
07:34 5.8 °C 5.1 °C 995.5 hPa NW 4.8 km/h 12.9 km/h 95% 0 mm
07:39 5.8 °C 5.1 °C 995.5 hPa NW 3.2 km/h 12.9 km/h 95% 0 mm
07:44 5.9 °C 5.2 °C 995.5 hPa NW 4.8 km/h 4.8 km/h 95% 0 mm
07:49 5.9 °C 5.2 °C 995.1 hPa NW 3.2 km/h 14.5 km/h 95% 0 mm
07:54 5.8 °C 5.1 °C 995.1 hPa NW 6.4 km/h 14.5 km/h 95% 0 mm
07:59 5.8 °C 5.1 °C 995.1 hPa NW 6.4 km/h 11.3 km/h 95% 0 mm
08:04 5.8 °C 5.1 °C 994.8 hPa WNW 3.2 km/h 9.7 km/h 95% 0 mm
08:09 5.9 °C 5.2 °C 994.8 hPa NW 3.2 km/h 14.5 km/h 95% 0 mm
08:14 5.9 °C 5.2 °C 994.8 hPa West 9.7 km/h 14.5 km/h 95% 0 mm
08:19 6 °C 5.3 °C 994.8 hPa WNW 9.7 km/h 14.5 km/h 95% 0 mm
08:24 6 °C 5.1 °C 994.8 hPa West 14.5 km/h 14.5 km/h 94% 0 mm
08:29 6.1 °C 5.3 °C 994.8 hPa North 4.8 km/h 16.1 km/h 95% 0 mm
08:34 6 °C 5.3 °C 994.5 hPa NW 4.8 km/h 16.1 km/h 95% 0 mm
08:39 6 °C 5.3 °C 994.5 hPa NW 4.8 km/h 11.3 km/h 95% 0 mm
08:44 6.1 °C 5.3 °C 994.8 hPa WNW 6.4 km/h 12.9 km/h 95% 0 mm
08:49 6 °C 5.3 °C 994.8 hPa WNW 6.4 km/h 12.9 km/h 95% 0 mm
08:54 5.9 °C 5.1 °C 994.8 hPa NW 6.4 km/h 12.9 km/h 94% 0 mm
08:59 5.9 °C 5 °C 994.8 hPa North 8 km/h 12.9 km/h 94% 0 mm
09:04 5.9 °C 5.1 °C 995.1 hPa WNW 6.4 km/h 12.9 km/h 94% 0 mm
09:09 5.9 °C 5.1 °C 995.1 hPa WNW 6.4 km/h 12.9 km/h 94% 0 mm
09:14 5.9 °C 5.1 °C 995.1 hPa NW 4.8 km/h 11.3 km/h 94% 0 mm
09:19 6 °C 5.1 °C 995.1 hPa NW 3.2 km/h 12.9 km/h 94% 0 mm
09:24 6.1 °C 5.2 °C 995.1 hPa WNW 3.2 km/h 12.9 km/h 94% 0 mm
09:29 6.2 °C 5.3 °C 995.1 hPa WNW 4.8 km/h 11.3 km/h 94% 0 mm
09:34 6.2 °C 5.3 °C 994.8 hPa WNW 4.8 km/h 14.5 km/h 94% 0 mm
09:39 6.2 °C 5.3 °C 994.8 hPa NW 3.2 km/h 16.1 km/h 94% 0 mm
09:44 6.2 °C 5.3 °C 994.8 hPa WNW 9.7 km/h 16.1 km/h 94% 0 mm
09:49 6.2 °C 5.3 °C 995.1 hPa WNW 8 km/h 16.1 km/h 94% 0 mm
09:54 6.1 °C 5 °C 994.8 hPa WNW 3.2 km/h 14.5 km/h 93% 0 mm
09:59 6.1 °C 5 °C 994.8 hPa WNW 8 km/h 12.9 km/h 93% 0 mm
10:04 6.2 °C 5.3 °C 995.1 hPa WNW 6.4 km/h 12.9 km/h 94% 0 mm
10:09 6.2 °C 5.3 °C 995.1 hPa WNW 3.2 km/h 9.7 km/h 94% 0 mm
10:14 6.1 °C 5.1 °C 995.1 hPa WNW 4.8 km/h 12.9 km/h 93% 0 mm
10:19 6.1 °C 5.1 °C 995.1 hPa NW 6.4 km/h 12.9 km/h 93% 0 mm
10:24 6.1 °C 5 °C 995.1 hPa NW 6.4 km/h 17.7 km/h 93% 0 mm
10:29 6.1 °C 5.1 °C 995.1 hPa NW 6.4 km/h 17.7 km/h 93% 0 mm
10:34 6.3 °C 5.3 °C 995.1 hPa NNW 8 km/h 8 km/h 93% 0 mm
10:39 6.2 °C 5.2 °C 995.1 hPa NNW 4.8 km/h 14.5 km/h 93% 0 mm
10:44 6.3 °C 5.3 °C 995.1 hPa NNW 4.8 km/h 8 km/h 93% 0 mm
10:49 6.3 °C 5.2 °C 995.1 hPa NW 3.2 km/h 16.1 km/h 93% 0 mm
10:54 6.3 °C 5.3 °C 995.1 hPa West 1.6 km/h 11.3 km/h 93% 0 mm
10:59 6.4 °C 5.2 °C 995.1 hPa West 3.2 km/h 8 km/h 92% 0 mm
11:04 6.4 °C 5.2 °C 995.1 hPa WNW 8 km/h 12.9 km/h 92% 0 mm
11:09 6.4 °C 5.2 °C 995.1 hPa WNW 6.4 km/h 12.9 km/h 92% 0 mm
11:14 6.4 °C 5.2 °C 995.1 hPa WNW 6.4 km/h 12.9 km/h 92% 0 mm
11:19 6.5 °C 5.3 °C 995.1 hPa WNW 6.4 km/h 12.9 km/h 92% 0 mm
11:24 6.6 °C 5.3 °C 995.1 hPa WNW 6.4 km/h 11.3 km/h 92% 0 mm
11:29 6.6 °C 5.3 °C 995.1 hPa WNW 6.4 km/h 14.5 km/h 92% 0 mm
11:34 6.6 °C 5.3 °C 995.1 hPa WNW 6.4 km/h 12.9 km/h 92% 0 mm
11:39 6.7 °C 5.5 °C 995.1 hPa NW 4.8 km/h 9.7 km/h 92% 0 mm
11:44 6.7 °C 5.5 °C 995.1 hPa WNW 1.6 km/h 12.9 km/h 92% 0 mm
11:49 6.6 °C 5.4 °C 995.1 hPa WNW 4.8 km/h 12.9 km/h 92% 0 mm
11:54 6.6 °C 5.3 °C 995.1 hPa WNW 9.7 km/h 12.9 km/h 92% 0 mm
11:59 6.6 °C 5.4 °C 995.1 hPa West 14.5 km/h 17.7 km/h 92% 0 mm
12:04 6.5 °C 5.3 °C 995.1 hPa West 9.7 km/h 14.5 km/h 92% 0 mm
12:09 6.6 °C 5.3 °C 995.1 hPa WNW 8 km/h 17.7 km/h 92% 0 mm
12:14 6.5 °C 5.3 °C 995.1 hPa WNW 8 km/h 16.1 km/h 92% 0 mm
12:19 6.6 °C 5.3 °C 995.1 hPa WNW 8 km/h 16.1 km/h 92% 0 mm
12:24 6.6 °C 5.4 °C 995.1 hPa WNW 6.4 km/h 14.5 km/h 92% 0 mm
12:29 6.7 °C 5.4 °C 995.1 hPa West 1.6 km/h 12.9 km/h 92% 0 mm
12:34 6.7 °C 5.5 °C 995.1 hPa West 3.2 km/h 9.7 km/h 92% 0 mm
12:39 6.7 °C 5.5 °C 995.1 hPa West 4.8 km/h 11.3 km/h 92% 0 mm
12:44 6.8 °C 5.8 °C 995.1 hPa West 8 km/h 8 km/h 93% 0 mm
12:49 6.7 °C 5.4 °C 995.1 hPa West 3.2 km/h 11.3 km/h 92% 0 mm
12:54 6.7 °C 5.4 °C 995.1 hPa WNW 6.4 km/h 9.7 km/h 92% 0.25 mm
12:59 6.6 °C 5.3 °C 995.1 hPa West 3.2 km/h 12.9 km/h 92% 0.25 mm
13:04 6.4 °C 5.2 °C 995.1 hPa West 6.4 km/h 12.9 km/h 92% 0.25 mm
13:09 6.4 °C 5.2 °C 995.1 hPa WNW 4.8 km/h 12.9 km/h 92% 0.25 mm
13:14 6.4 °C 5.2 °C 995.1 hPa West 4.8 km/h 12.9 km/h 92% 0.25 mm
13:19 6.5 °C 5.3 °C 995.1 hPa West 6.4 km/h 12.9 km/h 92% 0.25 mm
13:24 6.6 °C 5.6 °C 995.1 hPa WNW 4.8 km/h 9.7 km/h 93% 0.51 mm
13:29 6.7 °C 5.6 °C 995.1 hPa WNW 6.4 km/h 14.5 km/h 93% 0.51 mm
13:34 6.7 °C 5.6 °C 995.1 hPa WNW 14.5 km/h 17.7 km/h 93% 0.76 mm
13:39 6.6 °C 5.5 °C 995.1 hPa West 8 km/h 17.7 km/h 93% 0.76 mm
13:44 6.6 °C 5.6 °C 995.1 hPa West 6.4 km/h 14.5 km/h 93% 0.76 mm
13:49 6.6 °C 5.6 °C 995.1 hPa WNW 6.4 km/h 11.3 km/h 93% 0.76 mm
13:54 6.6 °C 5.5 °C 995.1 hPa West 6.4 km/h 16.1 km/h 93% 0.51 mm
13:59 6.6 °C 5.5 °C 995.1 hPa WNW 4.8 km/h 14.5 km/h 93% 0.51 mm
14:04 6.6 °C 5.6 °C 995.1 hPa West 9.7 km/h 11.3 km/h 93% 0.51 mm
14:09 6.6 °C 5.6 °C 995.5 hPa West 6.4 km/h 11.3 km/h 93% 0.51 mm
14:14 6.7 °C 5.7 °C 995.5 hPa West 6.4 km/h 12.9 km/h 93% 0.76 mm
14:19 6.8 °C 5.8 °C 995.1 hPa West 6.4 km/h 12.9 km/h 93% 0.76 mm
14:24 6.8 °C 5.7 °C 995.5 hPa West 4.8 km/h 11.3 km/h 93% 0.51 mm
14:29 6.8 °C 5.7 °C 995.1 hPa West 1.6 km/h 12.9 km/h 93% 0.51 mm
14:34 6.8 °C 5.8 °C 995.1 hPa West 11.3 km/h 17.7 km/h 93% 0.25 mm
14:39 6.7 °C 5.7 °C 995.5 hPa West 12.9 km/h 19.3 km/h 93% 0.25 mm
14:44 6.7 °C 5.7 °C 995.5 hPa West 9.7 km/h 19.3 km/h 93% 0.25 mm
14:49 6.8 °C 5.8 °C 995.5 hPa West 8 km/h 14.5 km/h 93% 0.25 mm
14:54 7 °C 5.9 °C 995.5 hPa West 6.4 km/h 14.5 km/h 93% 0.25 mm
14:59 6.9 °C 5.9 °C 995.5 hPa West 8 km/h 16.1 km/h 93% 0.25 mm
15:04 7.1 °C 6.1 °C 995.5 hPa West 12.9 km/h 14.5 km/h 93% 0.25 mm
15:09 7.2 °C 6.1 °C 995.5 hPa WSW 8 km/h 16.1 km/h 93% 0.25 mm
15:14 7.3 °C 6.2 °C 995.5 hPa West 8 km/h 17.7 km/h 93% 0 mm
15:19 7.3 °C 6.1 °C 995.5 hPa WNW 9.7 km/h 16.1 km/h 92% 0 mm
15:24 7.2 °C 5.9 °C 995.5 hPa West 12.9 km/h 19.3 km/h 92% 0 mm
15:29 7.2 °C 5.9 °C 995.5 hPa West 9.7 km/h 22.5 km/h 92% 0 mm
15:34 7.2 °C 6 °C 995.5 hPa West 12.9 km/h 19.3 km/h 92% 0 mm
15:39 7.3 °C 6.1 °C 995.5 hPa West 9.7 km/h 14.5 km/h 92% 0 mm
15:44 7.5 °C 6.3 °C 995.8 hPa West 8 km/h 14.5 km/h 92% 0 mm
15:49 7.4 °C 6 °C 995.5 hPa West 8 km/h 22.5 km/h 91% 0 mm
15:54 7.3 °C 5.9 °C 995.8 hPa West 9.7 km/h 22.5 km/h 91% 0 mm
15:59 7.2 °C 5.8 °C 995.8 hPa West 8 km/h 19.3 km/h 91% 0 mm
16:04 7.1 °C 5.5 °C 995.8 hPa West 8 km/h 19.3 km/h 90% 0 mm
16:09 7.1 °C 5.7 °C 995.8 hPa WSW 6.4 km/h 16.1 km/h 91% 0 mm
16:14 7 °C 5.6 °C 995.8 hPa West 12.9 km/h 22.5 km/h 91% 0 mm
16:19 7.1 °C 5.7 °C 995.8 hPa WNW 3.2 km/h 17.7 km/h 91% 0 mm
16:24 7.2 °C 5.8 °C 996.2 hPa WNW 9.7 km/h 17.7 km/h 91% 0.25 mm
16:34 7.1 °C 5.7 °C 996.2 hPa West 3.2 km/h 19.3 km/h 91% 0.25 mm
16:39 7.1 °C 5.7 °C 996.2 hPa West 9.7 km/h 19.3 km/h 91% 0.25 mm
16:44 7.1 °C 5.7 °C 996.2 hPa WNW 9.7 km/h 20.9 km/h 91% 0.25 mm
16:49 7.3 °C 6.1 °C 996.2 hPa WNW 9.7 km/h 20.9 km/h 92% 0.51 mm
16:54 7.1 °C 5.7 °C 996.2 hPa WNW 9.7 km/h 17.7 km/h 91% 0.51 mm
16:59 7.3 °C 6.1 °C 996.2 hPa West 14.5 km/h 16.1 km/h 92% 0.51 mm
17:04 7.2 °C 5.8 °C 996.2 hPa SW 12.9 km/h 20.9 km/h 91% 0.51 mm
17:09 7.3 °C 5.9 °C 996.2 hPa West 9.7 km/h 17.7 km/h 91% 0.51 mm
17:14 7.3 °C 5.9 °C 996.5 hPa West 9.7 km/h 19.3 km/h 91% 0.51 mm
17:19 7.1 °C 5.7 °C 996.5 hPa West 9.7 km/h 20.9 km/h 91% 0.51 mm
17:24 7.1 °C 5.7 °C 996.5 hPa West 9.7 km/h 20.9 km/h 91% 0.51 mm
17:29 7.3 °C 6.1 °C 996.5 hPa WNW 8 km/h 16.1 km/h 92% 0.51 mm
17:34 7.3 °C 5.9 °C 996.5 hPa WNW 8 km/h 17.7 km/h 91% 0.51 mm
17:39 7.1 °C 5.7 °C 996.5 hPa WNW 9.7 km/h 17.7 km/h 91% 0.51 mm
17:44 7.1 °C 5.7 °C 996.5 hPa NW 11.3 km/h 16.1 km/h 91% 0.51 mm
17:49 7 °C 5.6 °C 996.5 hPa WNW 9.7 km/h 14.5 km/h 91% 0.25 mm
17:54 6.9 °C 5.4 °C 996.5 hPa WNW 9.7 km/h 20.9 km/h 90% 0.25 mm
17:59 6.9 °C 5.4 °C 996.8 hPa WNW 12.9 km/h 19.3 km/h 90% 0.25 mm
18:04 7 °C 5.4 °C 996.8 hPa WNW 11.3 km/h 12.9 km/h 90% 0.25 mm
18:09 7.1 °C 5.5 °C 996.8 hPa WNW 8 km/h 20.9 km/h 90% 0.25 mm
18:14 6.9 °C 5.4 °C 996.8 hPa WNW 9.7 km/h 20.9 km/h 90% 0.25 mm
18:19 6.8 °C 5.3 °C 996.8 hPa WNW 8 km/h 19.3 km/h 90% 0.51 mm
18:24 6.7 °C 5.2 °C 996.8 hPa WNW 8 km/h 19.3 km/h 90% 0.25 mm
18:29 6.7 °C 5.3 °C 996.8 hPa WNW 8 km/h 19.3 km/h 91% 0.25 mm
18:34 6.7 °C 5.2 °C 996.8 hPa WNW 8 km/h 16.1 km/h 90% 0.25 mm
18:39 6.6 °C 5.1 °C 997.2 hPa WNW 9.7 km/h 16.1 km/h 90% 0.25 mm
18:44 6.6 °C 5.2 °C 997.2 hPa WNW 3.2 km/h 14.5 km/h 91% 0.25 mm
18:49 6.4 °C 5.1 °C 997.2 hPa WNW 4.8 km/h 22.5 km/h 91% 0.25 mm
18:54 6.4 °C 5.1 °C 997.2 hPa NW 11.3 km/h 19.3 km/h 91% 0.25 mm
18:59 6.4 °C 5 °C 997.2 hPa NW 6.4 km/h 20.9 km/h 91% 0.51 mm
19:04 6.4 °C 5 °C 997.2 hPa NW 11.3 km/h 14.5 km/h 91% 0.51 mm
19:09 6.3 °C 4.9 °C 997.2 hPa NW 4.8 km/h 16.1 km/h 91% 0.51 mm
19:14 6.3 °C 4.9 °C 997.2 hPa WNW 8 km/h 16.1 km/h 91% 0.51 mm
19:19 6.2 °C 4.8 °C 997.2 hPa WNW 9.7 km/h 19.3 km/h 91% 0.25 mm
19:24 6.1 °C 4.8 °C 997.2 hPa WNW 9.7 km/h 19.3 km/h 91% 0.25 mm
19:29 6.1 °C 4.7 °C 997.2 hPa WNW 8 km/h 19.3 km/h 91% 0.25 mm
19:34 6 °C 4.7 °C 997.5 hPa NW 8 km/h 19.3 km/h 91% 0.25 mm
19:39 5.9 °C 4.6 °C 997.5 hPa WNW 3.2 km/h 14.5 km/h 91% 0.25 mm
19:44 5.9 °C 4.6 °C 997.5 hPa West 4.8 km/h 17.7 km/h 91% 0.25 mm
19:49 5.8 °C 4.4 °C 997.5 hPa WNW 6.4 km/h 19.3 km/h 91% 0.25 mm
19:54 5.8 °C 4.4 °C 997.9 hPa NNW 6.4 km/h 17.7 km/h 91% 0.25 mm
19:59 5.7 °C 4.3 °C 997.9 hPa NW 11.3 km/h 22.5 km/h 91% 0.25 mm
20:04 5.6 °C 4.2 °C 997.9 hPa WNW 6.4 km/h 20.9 km/h 91% 0.25 mm
20:09 5.4 °C 4.1 °C 997.9 hPa WNW 8 km/h 19.3 km/h 91% 0.25 mm
20:14 5.4 °C 4.1 °C 997.9 hPa WNW 9.7 km/h 19.3 km/h 91% 0.25 mm
20:19 5.3 °C 4.1 °C 998.2 hPa NW 9.7 km/h 17.7 km/h 92% 0.25 mm
20:24 5.3 °C 4.1 °C 998.2 hPa WNW 9.7 km/h 22.5 km/h 92% 0.25 mm
20:29 5.2 °C 3.9 °C 998.2 hPa WNW 9.7 km/h 22.5 km/h 91% 0.51 mm
20:34 5.1 °C 3.8 °C 998.2 hPa WNW 11.3 km/h 20.9 km/h 91% 0.51 mm
20:39 5.1 °C 3.9 °C 998.5 hPa NW 11.3 km/h 20.9 km/h 92% 0.51 mm
20:44 5.1 °C 3.9 °C 998.5 hPa WNW 9.7 km/h 19.3 km/h 92% 0.51 mm
20:49 5.1 °C 3.9 °C 998.5 hPa NW 9.7 km/h 20.9 km/h 92% 0.51 mm
20:54 5.1 °C 3.9 °C 998.5 hPa NW 9.7 km/h 22.5 km/h 92% 0.51 mm
20:59 5.1 °C 3.9 °C 998.5 hPa WNW 8 km/h 22.5 km/h 92% 0.51 mm
21:04 5 °C 3.8 °C 998.5 hPa NNW 6.4 km/h 20.9 km/h 92% 0.51 mm
21:09 4.9 °C 3.8 °C 998.5 hPa WNW 4.8 km/h 19.3 km/h 92% 0.51 mm
21:14 4.9 °C 3.8 °C 998.9 hPa West 8 km/h 19.3 km/h 92% 0.51 mm
21:19 4.9 °C 3.8 °C 998.9 hPa NW 8 km/h 19.3 km/h 92% 0.51 mm
21:24 4.9 °C 3.8 °C 998.9 hPa WNW 9.7 km/h 19.3 km/h 92% 0.76 mm
21:29 4.9 °C 3.7 °C 998.9 hPa WNW 8 km/h 19.3 km/h 92% 0.51 mm
21:34 4.8 °C 3.7 °C 998.9 hPa West 8 km/h 12.9 km/h 92% 0.51 mm
21:39 4.8 °C 3.7 °C 998.9 hPa West 9.7 km/h 14.5 km/h 92% 0.51 mm
21:44 4.8 °C 3.7 °C 998.9 hPa WNW 17.7 km/h 17.7 km/h 92% 0.51 mm
21:49 4.8 °C 3.8 °C 998.9 hPa WNW 9.7 km/h 17.7 km/h 93% 0.51 mm
21:54 4.8 °C 3.8 °C 999.2 hPa WNW 8 km/h 17.7 km/h 93% 0.51 mm
21:59 4.8 °C 3.8 °C 999.2 hPa West 4.8 km/h 12.9 km/h 93% 0.25 mm
22:04 4.8 °C 3.7 °C 999.2 hPa NW 11.3 km/h 17.7 km/h 93% 0.25 mm
22:09 4.8 °C 3.7 °C 999.2 hPa West 9.7 km/h 14.5 km/h 93% 0.25 mm
22:14 4.8 °C 3.8 °C 999.2 hPa WNW 6.4 km/h 16.1 km/h 93% 0.25 mm
22:19 4.8 °C 3.7 °C 999.2 hPa WNW 8 km/h 16.1 km/h 93% 0.51 mm
22:24 4.8 °C 3.8 °C 999.5 hPa WNW 8 km/h 19.3 km/h 93% 0.25 mm
22:29 4.8 °C 3.7 °C 999.5 hPa WNW 8 km/h 19.3 km/h 93% 0.25 mm
22:34 4.8 °C 3.8 °C 999.5 hPa WNW 8 km/h 14.5 km/h 93% 0.25 mm
22:39 4.8 °C 3.7 °C 999.5 hPa WSW 8 km/h 12.9 km/h 93% 0.25 mm
22:44 4.8 °C 3.7 °C 999.5 hPa NNW 11.3 km/h 14.5 km/h 93% 0.25 mm
22:49 4.8 °C 3.7 °C 999.5 hPa NW 6.4 km/h 14.5 km/h 93% 0.25 mm
22:54 4.8 °C 3.7 °C 999.5 hPa NW 3.2 km/h 12.9 km/h 93% 0.51 mm
22:59 4.8 °C 3.7 °C 999.5 hPa NW 4.8 km/h 16.1 km/h 93% 0.51 mm
23:04 4.8 °C 3.7 °C 999.5 hPa WNW 4.8 km/h 12.9 km/h 93% 0.51 mm
23:09 4.7 °C 3.7 °C 999.5 hPa North 6.4 km/h 12.9 km/h 93% 0.51 mm
23:14 4.7 °C 3.6 °C 999.5 hPa WNW 11.3 km/h 11.3 km/h 93% 0.51 mm
23:19 4.7 °C 3.6 °C 999.5 hPa West 6.4 km/h 14.5 km/h 93% 0.51 mm
23:24 4.7 °C 3.7 °C 999.5 hPa NW 6.4 km/h 14.5 km/h 93% 0.51 mm
23:29 4.7 °C 3.6 °C 999.5 hPa WNW 6.4 km/h 16.1 km/h 93% 0.51 mm
23:34 4.7 °C 3.7 °C 999.5 hPa NW 6.4 km/h 16.1 km/h 93% 0.51 mm
23:39 4.7 °C 3.7 °C 999.5 hPa NW 4.8 km/h 14.5 km/h 93% 0.51 mm
23:44 4.7 °C 3.6 °C 999.5 hPa NW 6.4 km/h 14.5 km/h 93% 0.76 mm
23:49 4.6 °C 3.6 °C 999.5 hPa NW 6.4 km/h 14.5 km/h 93% 0.76 mm
23:54 4.7 °C 3.6 °C 999.5 hPa WNW 4.8 km/h 12.9 km/h 93% 0.51 mm
23:59 4.6 °C 3.6 °C 999.5 hPa West 6.4 km/h 12.9 km/h 93% 0.51 mm
Buffalo, New York, USA
Compliments of Weather Underground - 2.5 mb